{"data":{"norad_id":66282,"epoch":"2026-05-25T04:32:02.745888Z","epoch_age_seconds":55971,"freshness":"FRESH","line1":"1 66282U 25247T   26145.18892067  .00014190  00000+0  49019-3 0  9993","line2":"2 66282  53.1595 196.2791 0001666  72.4147 287.7036 15.30207951 32745","mean_motion":15.30207951,"eccentricity":0.0001666,"inclination_deg":53.1595,"raan_deg":196.2791,"arg_perigee_deg":72.4147,"mean_anomaly_deg":287.7036,"bstar":0.00049019,"rev_number":3274,"period_min":94.104856732639,"perigee_km":474.04956476964,"apogee_km":476.33309376895,"semimajor_km":6853.3283292693,"source":"CELESTRAK","updated_at":"2026-05-25T13:38:21.163701Z"}}